CZ-3C DEB, 40201

Orbit data source: Space-Track

CZ-3C DEB, 40201 is space debris in HEO originally from a launch on Fri, 24 Feb 2012 UTC launched from the Xichang Space Center, China (XSC). Debris objects in space refer to the collection of defunct objects orbiting the Earth. Examples of debris include non-operational satellites, rocket bodies, and fragments generated from explosions, collisions, or faulty payload assembly.

Loading next visibility...
Identifier
40201, 2012-008L
Orbit
HEO
Country
Flag of CNCN / PRC
Related business
Manufacturer
CALT
Mission
Spacecraft
Bus & Motor
Unknown
Mass
Unknown
Launch date (UTC)
2012-02-24 (14 years ago)
Launch vehicle
Unknown
Launch site
Xichang Space Center, China (XSC)
Object type
Payload
Rocket body
Debris
Shape & HBR
Unknown shape, 0.3 m
Radar Cross Section
Medium (>0.1 m² and <1 m²)

Expand to show TLE details & history
Last TLE update: 1 week ago

TLE from 1 week ago
0 CZ-3C DEB
1 40201U 12008L   25282.25476159 -.00000389  00000-0 -15539-1 0  9992
2 40201  20.7680 160.7679 7105212 287.8742  11.0153  2.24699787 97555
Epoch: 2025-10-09T06:06Z
TLE epoch observation values (Epoch: 2025-10-09T06:06:51.401Z)
Latitude
0.00073°
Longitude
51.06348°
Altitude
3,672.92 km
Speed
7.945 km/s
True Right ascension
10h 43m 34s
True Declination
0° 00' 03"
Sunlit
Object was in daylight at epoch
Visualization orbit readout
Latitude
Unknown
Longitude
Unknown
Altitude
Unknown
Speed
Unknown
Apparent Right ascension
Unknown
Apparent Declination
Unknown
Sunlit
N/A
Visualization observer readout
Local Sidereal Time
14:52:56
Azimuth
Unknown
Elevation
Unknown
Doppler factor
Unknown
Orbital elements
Apogee altitude
35,746.445 km
Perigee altitude
750.786 km
Semi-major axis
24,626.752 km
Eccentricity
0.71052
Inclination
20.768°
RAAN
160.7679°
Arg. of periapsis
287.8742°
True anomaly
72.31294°
Mean anomaly
11.0153°
Eccentric anomaly
33.46215°
Mean motion
0.56161 °/min
Orbital period
641.02 mins
BSTAR
-0.015539
Loading maneuver chart data...
Computing Atmospheric mass density...
Loading historical data...
Loading historical data...
Loading historical data...
Loading historical data...
Loading historical data...
Loading historical data...
Loading historical data...

Documentation

Showing up to 5 results
|